This is the latest recevied weather packets stored in our database for station/object EA1GLE. If no packets are shown the sender has not sent any weather packets the latest 10 day(s).
| Time | Temp. | Humidity | Pressure | Rain* | Wind** | Luminosity | Snow |
|---|---|---|---|---|---|---|---|
| 1778112003 | 7.78° C | 91% | 1014.6 hPa | 0 mm | - | 0 W/m² | - |
| 1778111104 | 7.78° C | 91% | 1014.3 hPa | 0 mm | - | 0 W/m² | - |
| 1778110563 | 7.78° C | 91% | 1014.6 hPa | 0 mm | - | 0 W/m² | - |
| 1778108943 | 7.78° C | 91% | 1014.6 hPa | 0 mm | - | 0 W/m² | - |
| 1778108403 | 7.78° C | 91% | 1014.3 hPa | 0 mm | - | 0 W/m² | - |
| 1778105883 | 7.78° C | 92% | 1014.5 hPa | 0 mm | - | 0 W/m² | - |
| 1778103364 | 8.33° C | 90% | 1014.8 hPa | 0 mm | - | 0 W/m² | - |
| 1778102283 | 8.89° C | 89% | 1014.5 hPa | 0 mm | - | 0 W/m² | - |
| 1778090538 | 13.89° C | 63% | 1013.6 hPa | 0 mm | - | 39 W/m² | - |
| 1778089098 | 15° C | 59% | 1013.6 hPa | 0 mm | - | 216 W/m² | - |
| 1778086803 | 15° C | 54% | 1013.7 hPa | 0 mm | - | 308 W/m² | - |
| 1778085903 | 13.89° C | 58% | 1013.9 hPa | 0 mm | - | 83 W/m² | - |
| 1778085363 | 14.44° C | 56% | 1013.8 hPa | 0 mm | - | 71 W/m² | - |
| 1778082977 | 14.44° C | 48% | 1013.9 hPa | 0 mm | - | 415 W/m² | - |
| 1778072043 | 15.56° C | 56% | 1015.2 hPa | 0 mm | - | 897 W/m² | - |
| 1778067363 | 13.33° C | 60% | 1015.7 hPa | 0 mm | - | 899 W/m² | - |
| 1778066957 | 12.78° C | 59% | 1015.8 hPa | 0 mm | - | 878 W/m² | - |
| 1778060703 | 10.56° C | 70% | 1016.2 hPa | 0 mm | - | 602 W/m² | - |
| 1778054043 | 8.89° C | 85% | 1015.9 hPa | 0 mm | - | 154 W/m² | - |
| 1778053504 | 9.44° C | 83% | 1015.9 hPa | 0 mm | - | 350 W/m² | - |
| 1778052964 | 8.33° C | 86% | 1015.9 hPa | 0 mm | - | 371 W/m² | - |
| 1778049904 | 7.22° C | 98% | 1015.6 hPa | 0 mm | - | 73 W/m² | - |
| 1778047203 | 4.44° C | 99% | 1015.5 hPa | 0 mm | - | 48 W/m² | - |
| 1778046304 | 3.89° C | 99% | 1015.5 hPa | 0 mm | - | 33 W/m² | - |
| 1778043243 | 3.33° C | 99% | 1015.3 hPa | 0 mm | - | 0 W/m² | - |
* Rain latest hour (hover to see other rain measurements)
** Current wind speed in m/s (hover to see current wind gust speed)